Regional Weather Roundup
Issued by NWS San Diego, CA

Current Version | Previous Version | Text Only | Print | Product List | Glossary On
Versions: 1 2 3 4 5 6 7 8 9 10 11 12 13 14 15 16 17 18 19 20 21 22 23 24 25 26 27 28 29 30 31 32 33 34 35 36 37 38 39 40 41 42 43 44 45 46 47 48 49 50
607
ASUS46 KSGX 130811
RWRSGX

SAN DIEGO HOURLY WEATHER ROUNDUP
NATIONAL WEATHER SERVICE SAN DIEGO CA
1200 AM PST FRI DEC 13 2019

NOTE: "FAIR" INDICATES FEW OR NO CLOUDS BELOW 12,000 FEET WITH NO
SIGNIFICANT WEATHER AND/OR OBSTRUCTIONS TO VISIBILITY.

CAZ042-043-060-061-PZZ750-775-130900-

GREATER SAN DIEGO AREA

CITY           SKY/WX    TMP DP  RH WIND       PRES   REMARKS
SAN DIEGO AP   PTCLDY    57  55  93 CALM      30.17F FOG
NATIONAL CITY    N/A    N/A N/A N/A CALM      30.16F
CHULA VISTA      N/A     54  52  93 CALM      30.07F
BROWN FIELD    CLEAR     54  51  90 S6        30.15F FOG
MIRAMAR MCAS   CLEAR     54  49  83 CALM      30.14F
MONTGOMERY FLD CLEAR     55  51  86 CALM      30.15F
GILLESPIE FLD  FAIR      50  48  93 CALM      30.15F

$$

NORTH SAN DIEGO COUNTY

CITY           SKY/WX    TMP DP  RH WIND       PRES   REMARKS
CAMP PENDLETON CLEAR     47  43  86 CALM      30.16S
OCEANSIDE AP   CLEAR     50  48  93 CALM      30.15S FOG
OCEANSIDE HBR    N/A     54  52  92 CALM      30.18S
CARLSBAD       CLEAR     54  52  93 CALM      30.14F FOG
DEL MAR          N/A     55  54  95 CALM      30.16F
LA JOLLA SCRIP   N/A     58  54  87 CALM      30.15F
FALLBROOK      FAIR      55  46  71 CALM      30.16S
ESCONDIDO        N/A     53  48  82 CALM      30.16F
SAN MARCOS       N/A     56  51  83 CALM      30.19S
POWAY            N/A     49  46  88 CALM      30.16F

$$

EAST SAN DIEGO COUNTY

CITY           SKY/WX    TMP DP  RH WIND       PRES   REMARKS
RAMONA         CLEAR     45  43  93 CALM      30.16F FOG
SANTEE LAKES     N/A     50  48  92 N2        30.13F
LA MESA          N/A     56  50  82 CALM      30.10F
JAMUL            N/A     50  48  91 CALM      30.16F
DESCANSO N       N/A     47  40  75 NE5       30.15F
MT. LAGUNA OBS   N/A     54  32  42 NW13      30.12F
CAMPO            N/A     43  38  82 NE7       30.17F

$$

ORANGE COUNTY AND THE LOS ANGELES BASIN

CITY           SKY/WX    TMP DP  RH WIND       PRES   REMARKS
JOHN WAYNE AP  CLEAR     58  52  80 CALM      30.16R
LAGUNA BEACH     N/A     52  51  97 CALM      30.15S
LAKE FOREST FR   N/A     56  48  76 CALM      30.04S
HUNTINGTON BCH   N/A     53  52  98 CALM      30.16S
LOS ALAMITOS   FOG       53  53 100 CALM      30.15F VSB 1/2
FULLERTON      CLEAR     55  50  83 CALM      30.15S
LONG BEACH     CLEAR     56  54  93 SE3       30.16S FOG
L.A. AP        PTCLDY    60  55  83 E5        30.16S
L.A. DOWNTOWN  CLEAR     60  54  80 CALM      30.15S

$$

THE INLAND EMPIRE

CITY           SKY/WX    TMP DP  RH WIND       PRES   REMARKS
CORONA         CLEAR     47  46  97 CALM      30.17F
CHINO          CLEAR     51  49  92 CALM      30.18S FOG
ONTARIO        PTCLDY    56  45  66 NE3       30.16F
SAN BERNARDINO FAIR      50  43  77 CALM      30.18S
RIVERSIDE AP   CLEAR     54  44  69 NE5       30.17S
MORENO VALLEY    N/A     57  46  67 CALM      30.18F
MARCH ARB      CLEAR     45  45 100 CALM      30.17F
HORSETHIEF CYN   N/A     53  45  73 SW1       30.17F
PERRIS           N/A     53  45  73 CALM      30.20F
HEMET EAST       N/A     54  38  54 CALM      30.20F
FRENCH VALLEY  FAIR      48  46  93 CALM      30.18S
TEMECULA         N/A     51  50  95 CALM      30.17F

$$

SAN BERNARDINO AND RIVERSIDE COUNTY MOUNTAINS

CITY           SKY/WX    TMP DP  RH WIND       PRES   REMARKS
BIG BEAR AP    CLEAR     32  28  86 CALM      30.38S

$$

SOUTHERN DESERT INCLUDING THE COACHELLA VALLEY

CITY           SKY/WX    TMP DP  RH WIND       PRES   REMARKS
PALM SPRINGS   CLEAR     54  42  64 NW7       30.19F
THOUSAND PALMS   N/A     53  42  65 W3        30.14F
PALM DESERT      N/A     53  45  75 CALM      31.65S
THERMAL        CLEAR     48  42  80 CALM      30.15F
BORREGO AP     FAIR      45  41  87 CALM      30.16F
BLYTHE         CLEAR     49  43  80 NE3       30.18S
IMPERIAL AP    CLEAR     50  42  74 CALM      30.15F
EL CENTRO NAS  CLEAR     50  39  66 W8        30.18F
YUMA AZ        PTCLDY    56  38  50 N3        30.15F
MEXICALI       CLEAR     52  45  76 NW2       30.17F

$$

UPPER DESERT

CITY           SKY/WX    TMP DP  RH WIND       PRES   REMARKS
HESPERIA         N/A     48  43  83 W3        30.25S
APPLE VALLEY     N/A     43  41  93 E2        30.27F
PALMDALE       CLEAR     48  42  80 S9        30.23S
LANCASTER      CLEAR     55  47  74 W6        30.22S
EDWARDS AFB    CLEAR     51  44  77 S12       30.18F
DAGGETT        CLEAR     43  38  82 CALM      30.21S
29 PALMS N     CLEAR     47  39  74 NE3       30.26F
NEEDLES        CLEAR     49  42  77 NW6       30.19F

$$

REGIONAL REPORTS

CITY           SKY/WX    TMP DP  RH WIND       PRES   REMARKS
SANTA BARBARA  CLEAR     53  53 100 CALM      30.14S
SANDBERG       CLEAR     52  45  77 NW20G26   30.29F
LAS VEGAS NV   MOCLDY    46  36  68 S5        30.20F
PHOENIX AZ     PTCLDY    54  45  71 E8        30.16F
TIJUANA        CLEAR     54  54 100 E5        30.18F
ENSENADA NW      N/A     58  32  36 CALM      30.13F

$$

OFFSHORE ISLANDS

CITY           SKY/WX    TMP DP  RH WIND       PRES   REMARKS
CATALINA ARPT  CLEAR     64  45  49 NE7       30.18S
SAN CLEMENTE I CLEAR     59  32  36 CALM      30.17S
SAN NICOLAS IS FOG      N/A N/A N/A NW14      30.16S VSB 1/2

$$

MARINE AND OFFSHORE BUOY REPORTS

STATION/POSITION SKY/WX   TEMP    WIND        PRES    VSBY  SWELL
                          AIR SEA DIR/SP/G                  HT/PER/DIR
                          (F)     (DEG/KT/KT) (MB)    (MI)  (FT/S/D)
TANNER BANKS               60 60  330/ 14/ 19 1021.9S         7/290/17
S CLEMENTE BASIN           60 63  260/  2/  4 1021.2F         5/270/15
SAN NICOLAS IS.               60                N/A           7/290/13
SO. S. ROSA ISLA           58 60  310/ 21/ 27 1022.0S         8/310/16
W. S. BARBARA CH           58 60  320/ 19/ 25 1021.9F        10/310/16
M. S. BARBARA CH           61 61   20/  4/  6 1021.2R         5/270/14
S. MONICA BASIN            62 62  320/  2/  4 1021.2S         3/260/11
S PEDRO CHANNEL               63                N/A           3/270/15
OCEANSIDE OFFSHR              63                N/A           3/250/11
TORREY PINES OTR              60                N/A           3/270/15
SAN DIEGO BAY                 62              1020.9F
IMPERIAL BEACH                61                N/A           3/270/12
POINT LOMA SOUTH              63                N/A           5/280/13

$$





USA.gov is the U.S. government's official web portal to all federal, state and local government web resources and services.